Regional Weather Roundup
Issued by NWS

Home | Current Version | Previous Version | Text Only | Print | Product List | Glossary Off
Versions: 1 2 3 4 5 6 7 8 9 10 11 12 13 14 15 16 17 18 19 20 21 22 23 24 25 26 27 28 29 30 31 32 33 34 35 36 37 38 39 40 41 42 43 44 45 46 47 48 49 50

000
ASUS43 KMPX 170810
RWRMN
WEATHER ROUNDUP FOR MINNESOTA
NATIONAL WEATHER SERVICE TWIN CITIES/CHANHASSEN MN
200 AM CST SAT FEB 17 2018


NOTE: "FAIR" INDICATES FEW OR NO CLOUDS BELOW 12,000 FEET WITH NO
SIGNIFICANT WEATHER AND/OR OBSTRUCTIONS TO VISIBILITY. N/A MEANS
CURRENT SKY AND/OR WEATHER CONDITIONS ARE NOT AVAILABLE.

MNZ060>063-068>070-170900-
   Twin Cities Metro

CITY           SKY/WX    TMP DP  RH WIND       PRES   REMARKS
TWIN CITIES    CLOUDY    23  12  62 SW12      29.94F WCI  12
ST PAUL        FAIR      18  11  74 SE6       29.96F WCI  10
CRYSTAL        FAIR      21  10  62 S13G24    29.91F WCI   9
BLAINE         FAIR      23  12  63 S13G18    29.92R WCI  11
LAKEVILLE      FAIR      18  10  73 S13       29.93F WCI   4
EDEN PRAIRIE   FAIR      20  11  68 S13       29.93F WCI   7
SOUTH ST PAUL  FAIR      21  11  65 S12G18    29.95F WCI   9
LAKE ELMO      MOCLDY    18  10  73 S8        29.95F WCI   7
$$
MNZ001>005-007-008-013>017-022>024-027-028-170900-
   Northwest Minnesota

CITY           SKY/WX    TMP DP  RH WIND       PRES   REMARKS
BEMIDJI        FAIR      19  16  85 SW8       29.72F WCI   9
HALLOCK        FAIR      12   7  79 W12       29.72S WCI  -2
ROSEAU         FAIR      18  12  79 W8        29.69R WCI   7
WARROAD        FAIR      18  12  79 W13       29.67S WCI   4
THIEF RVR FALL FAIR      19  14  81 W13       29.73S WCI   6
CROOKSTON      FAIR      18  12  79 NW9       29.77S WCI   6
FOSSTON        FAIR      18  10  73 SW9       29.75R WCI   6
DETROIT LAKES  FAIR      21  19  93 SW8       29.78S WCI  12
MOORHEAD       FAIR      23  16  74 W8        29.81S WCI  14
PARK RAPIDS    FAIR      18  13  80 SW8       29.76F WCI   8
MAHNOMEN       FAIR      19  16  88 SW14      29.76R WCI   6
$$
MNZ006-009>011-018-025>026-170900-
   North Central Minnesota

CITY           SKY/WX    TMP DP  RH WIND       PRES   REMARKS
BAUDETTE       FAIR      19  12  74 W8        29.65S WCI   9
FLAG ISLAND    FAIR      14   9  79 W12       29.64R WCI   0
INTL FALLS     CLOUDY    21  10  62 SW10      29.66F WCI  10
WASKISH        FAIR      19  16  86 SW13G18   29.70R WCI   7
BIG FORK       FAIR      19  12  73 S12G18    29.70F WCI   7
LONGVILLE      MOCLDY    18  10  73 S9        29.77F WCI   6
GRAND RAPIDS   MOCLDY    16   9  74 SW12      29.78F WCI   3
CRANE LAKE     CLOUDY    18   7  62 S8        29.71F WCI   7
ORR            CLOUDY    18   7  62 S9        29.68F WCI   6
COOK           CLOUDY    16   9  73 SW10G16   29.73S WCI   3
WALKER         FAIR      19  14  81 SW9       29.75F WCI   7
$$
MNZ012-019>021-037-170900-
   Northeast Minnesota

CITY           SKY/WX    TMP DP  RH WIND       PRES   REMARKS
DULUTH         CLOUDY    14   6  70 SW17G26   29.79F WCI  -3
ELY            FAIR      14   5  67 SW13G22   29.73S WCI   0
HIBBING        CLOUDY    13   5  70 SW8       29.76F WCI   2
EVELETH        FAIR     N/A N/A N/A SW14      29.77F
DULUTH HARBOR  CLOUDY    18  10  73 SW13      29.87F WCI   4
TWO HARBORS    FAIR      18   9  68 SW10      29.80F WCI   6
GRAND MARAIS     N/A     23  18  81 SW26G36   29.82F WCI   6
G MARAIS ARPRT LGT SNOW  12   5  73 S9        29.73F WCI   0
$$
MNZ029>031-032-039>041-046>048-054>057-064-170900-
   West Central Minnesota

CITY           SKY/WX    TMP DP  RH WIND       PRES   REMARKS
FERGUS FALLS   FLURRIES  19  18  93 S3        29.82F
WHEATON        CLOUDY    27  18  69 SW13      29.85S WCI  16
MORRIS         CLOUDY    23  16  74 SW5       29.83F WCI  17
ALEXANDRIA     CLOUDY    20  13  74 SW8       29.82F WCI  10
ELBOW LAKE     CLOUDY    19  13  76 SE9       29.83F WCI   9
WADENA         CLOUDY    19  16  86 SW8       29.79F WCI   9
GLENWOOD       FAIR      18  14  86 SW7       29.83F WCI   8
APPLETON       CLOUDY    27  18  69 W12       29.85S WCI  16
BENSON         CLOUDY    19  14  79 CALM      29.86S
ORTONVILLE     PTCLDY    27  18  69 W7        29.85S WCI  19
MADISON        CLOUDY    30  21  69 W10G16    29.85R WCI  21
WILLMAR        FAIR      21  16  79 CALM      29.88F
$$
MNZ033>034-036-042>043-049>051-058-059-170900-
   Central Minnesota

CITY           SKY/WX    TMP DP  RH WIND       PRES   REMARKS
ST CLOUD       CLOUDY    18  12  77 MISG      29.87F
SAUK CENTRE    FAIR      19  13  79 S8        29.84S WCI   8
PAYNESVILLE    FAIR      19  14  81 S6        29.86F WCI  11
AITKIN         FAIR      16   9  73 S7        29.81S WCI   6
PINE RIVER     FLURRIES  16   9  73 S6        29.83F WCI   7
BRAINERD       MOCLDY    16   8  71 S10       29.82F WCI   4
STAPLES        LGT SNOW  18  12  79 SW7       29.80F WCI   8
LONG PRAIRIE   FAIR      16  12  86 S7        29.83F WCI   6
LITTLE FALLS     N/A    N/A N/A N/A S3          N/A
LITCHFIELD     MOCLDY    19  14  79 S5        29.88S WCI  13
BUFFALO        MOCLDY    19  11  71 S9        29.92S WCI   9
MAPLE LAKE     MOCLDY    20  13  76 MISG      29.90S
HUTCHINSON     CLOUDY    19  13  77 S8        29.90F WCI   9
$$
MNZ037-044-045-052-053-170900-
   East Central Minnesota

CITY           SKY/WX    TMP DP  RH WIND       PRES   REMARKS
PRINCETON      FAIR      19  12  73 S6        29.88S WCI  11
MORA           FAIR      14   9  79 SW5       29.89F WCI   6
CAMBRIDGE        N/A     19  10  68 S8        29.90F WCI   9
RUSH CITY      MOCLDY    15   9  76 S8        29.90S WCI   4
MOOSE LAKE     MOCLDY    14   7  73 SW9       29.83F WCI   2
HINCKLEY       FAIR      14   9  79 S3        29.88F
CLOQUET        MOCLDY    12   5  73 S12       29.81F WCI  -2
MCGREGOR       FAIR      18  10  73 S8        29.83F WCI   7
$$
MNZ071>073-080-081-089-090-097-098-170900-
   Southwest Minnesota

CITY           SKY/WX    TMP DP  RH WIND       PRES   REMARKS
MONTEVIDEO     CLOUDY    27  19  74 W8G16     29.85S WCI  18
GRANITE FALLS  CLOUDY    28  19  70 S15       29.88F WCI  16
CANBY          MOCLDY    27  20  75 SW14G21   29.86F WCI  16
MARSHALL       CLOUDY    26  17  68 SW18      29.87F WCI  13
REDWOOD FALLS  CLOUDY    25  15  66 SW17      29.89F WCI  12
OLIVIA         CLOUDY    27  18  69 SW13      29.87F WCI  16
PIPESTONE      CLOUDY    23  18  80 SW15      29.86F WCI  10
WINDOM         CLOUDY    23   7  50 S15       29.91F WCI  10
WORTHINGTON    CLOUDY    23  15  71 SW20      29.92S WCI   8
JACKSON        CLOUDY    23  14  68 S12       29.93F WCI  12
TRACY          CLOUDY    25  18  73 SW21G28   29.87F WCI  11
SLAYTON        CLOUDY    23  16  76 SW20G26   29.89F WCI   8
$$
MNZ065>067-074>077-082>085-091>093-170900-
   South Central Minnesota

CITY           SKY/WX    TMP DP  RH WIND       PRES   REMARKS
MANKATO        FAIR      22  13  68 S18       29.94F WCI   7
NEW ULM        CLOUDY    21  12  68 S8        29.93S WCI  12
ST JAMES       CLOUDY    23  16  74 S10G17    29.94S WCI  12
FAIRMONT       CLOUDY    21  14  74 SW22      29.94F WCI   5
GLENCOE        CLOUDY    19  13  77 S8G16     29.92S WCI   9
FARIBAULT      FAIR      16  10  79 S9        29.96F WCI   4
OWATONNA       MOCLDY    18  10  73 S15       29.95F WCI   3
WASECA         MOCLDY    23  14  68 S14       29.97S WCI  11
ALBERT LEA     CLOUDY    21  10  63 S8        29.97F WCI  12
$$
MNZ078>079-086>088-094>096-170900-
   Southeast Minnesota

CITY           SKY/WX    TMP DP  RH WIND       PRES   REMARKS
ROCHESTER      FAIR      17   9  70 S14       29.98F WCI   3
RED WING       FAIR      19   7  58 S3        29.99F
STANTON        MOCLDY    19  10  70 S14G21    29.95F WCI   5
DODGE CENTER   MOCLDY    18   9  68 S17       29.95F WCI   2
WINONA         FAIR      21   9  58 S5        30.04F WCI  15
AUSTIN         MOCLDY    18   9  68 S9        29.99F WCI   6
PRESTON        FAIR      18   6  60 S20G25    30.01F WCI   1
$$
ABBREVIATIONS USED IN REMARKS
   TC - TEMPERATURES IN CELSIUS
  WCI - WIND CHILL INDEX
   HX - HEAT INDEX
  VSB - VISIBILITY
$$




USA.gov is the U.S. government's official web portal to all federal, state and local government web resources and services.